Fortuna, CA

1:21 AM PST on November 12, 2019 (GMT -0800)
Rohnerville

Weather History for KFOT - July, 2019

Change the Weather History Date:

Thursday, July 18, 2019

  Actual Average (WUND) Record (WUND)
Temperature  
Mean Temperature 62 °F -  
Max Temperature 68 °F - - (-1)
Min Temperature 55 °F - - (-1)
Degree Days  
Heating Degree Days 4    
Growing Degree Days 12 (Base 50)    
Moisture  
Dew Point 57 °F    
Average Humidity 86    
Maximum Humidity 100    
Minimum Humidity 60    
Precipitation  
Precipitation 0.00 in - - ()
Sea Level Pressure  
Sea Level Pressure 29.98 in    
Wind  
Wind Speed 9 mph (WNW)    
Max Wind Speed 18 mph    
Max Gust Speed 24 mph    
Visibility 8 miles    
Events      
Averages and records for this station are not official NWS values.
T = Trace of Precipitation, MM = Missing Value Source: NWS Daily Summary

Daily Weather History Graph

Daily Weather History Graph

Search for Another Location

Airport or City:

Astronomy

Jul. 18, 2019 Rise Set
Actual Time 6:01 AM PDT 8:44 PM PDT
Civil Twilight 5:29 AM PDT 9:15 PM PDT
Nautical Twilight 4:48 AM PDT 9:55 PM PDT
Astronomical Twilight 4:03 AM PDT 10:41 PM PDT
Moon 10:12 PM PDT (7/18) 7:35 AM PDT (7/18)
Length of Visible Light 15h 46m
Length of Day
14h 43m
Waning Gibbous, 97% of the Moon is Illuminated
Jul 18
Waning Gibbous
Jul 24
Last Quarter
Jul 31
New
Aug 7
First Quarter
Aug 15
Full

Hourly Weather History & Observations

Time (PDT) Temp. Dew Point Humidity Pressure Visibility Wind Dir Wind Speed Gust Speed Precip Events Conditions
12:10 AM 59.0 °F 59.0 °F 100% 30.02 in 0.2 mi West 8.1 mph - N/A   Overcast
12:30 AM 59.0 °F 59.0 °F 100% 30.02 in 0.2 mi West 6.9 mph - N/A   Overcast
12:50 AM 59.0 °F 59.0 °F 100% 30.01 in 0.2 mi West 5.8 mph - N/A   Overcast
1:10 AM 59.0 °F 59.0 °F 100% 30.01 in 0.2 mi West 8.1 mph - N/A   Overcast
1:30 AM 59.0 °F 59.0 °F 100% 30.01 in 0.2 mi WNW 5.8 mph - N/A   Overcast
1:50 AM 59.0 °F 59.0 °F 100% 30.00 in 0.2 mi West 6.9 mph - N/A   Overcast
2:10 AM 59.0 °F 59.0 °F 100% 30.00 in 0.5 mi NW 6.9 mph - N/A   Overcast
2:30 AM 59.0 °F 59.0 °F 100% 30.00 in 0.8 mi WNW 4.6 mph - N/A   Overcast
2:50 AM 59.0 °F 59.0 °F 100% 30.00 in 0.5 mi WNW 5.8 mph - N/A   Overcast
3:10 AM 59.0 °F 59.0 °F 100% 29.99 in 0.2 mi WNW 5.8 mph - N/A   Overcast
3:30 AM 59.0 °F 59.0 °F 100% 29.99 in 0.5 mi WNW 5.8 mph - N/A   Overcast
3:50 AM 59.0 °F 59.0 °F 100% 29.98 in 5.0 mi WNW 6.9 mph - N/A   Overcast
4:10 AM 59.0 °F 59.0 °F 100% 29.98 in 10.0 mi WNW 4.6 mph - N/A   Overcast
4:30 AM 59.0 °F 59.0 °F 100% 29.98 in 10.0 mi WNW 4.6 mph - N/A   Overcast
4:50 AM 59.0 °F 59.0 °F 100% 29.98 in 10.0 mi Calm Calm - N/A   Overcast
5:10 AM 59.0 °F 59.0 °F 100% 29.98 in 10.0 mi Calm Calm - N/A   Overcast
5:30 AM 59.0 °F 59.0 °F 100% 29.98 in 10.0 mi Calm Calm - N/A   Overcast
5:50 AM 59.0 °F 59.0 °F 100% 29.98 in 10.0 mi NW 4.6 mph - N/A   Overcast
6:10 AM 59.0 °F 59.0 °F 100% 29.98 in 2.5 mi WNW 4.6 mph - N/A   Overcast
6:30 AM 59.0 °F 59.0 °F 100% 29.98 in 0.2 mi WNW 6.9 mph - N/A   Overcast
6:50 AM 59.0 °F 59.0 °F 100% 29.98 in 0.2 mi West 8.1 mph - N/A   Overcast
7:10 AM 59.0 °F 59.0 °F 100% 29.99 in 0.2 mi WNW 8.1 mph - N/A   Overcast
7:30 AM 59.0 °F 59.0 °F 100% 29.99 in 0.2 mi WNW 9.2 mph - N/A   Overcast
7:50 AM 60.8 °F 60.8 °F 100% 29.99 in 0.2 mi WNW 8.1 mph - N/A   Overcast
8:10 AM 60.8 °F 60.8 °F 100% 30.00 in 8.0 mi WNW 10.4 mph - N/A   Mostly Cloudy
8:30 AM 60.8 °F 60.8 °F 100% 30.00 in 10.0 mi WNW 11.5 mph - N/A   Overcast
8:50 AM 60.8 °F 60.8 °F 100% 30.00 in 10.0 mi West 13.8 mph - N/A   Overcast
9:10 AM 60.8 °F 60.8 °F 100% 29.99 in 10.0 mi WNW 10.4 mph - N/A   Overcast
9:30 AM 62.6 °F 60.8 °F 94% 29.99 in 10.0 mi WNW 9.2 mph - N/A   Mostly Cloudy
9:50 AM 62.6 °F 60.8 °F 94% 29.99 in 10.0 mi West 10.4 mph - N/A   Mostly Cloudy
10:10 AM 62.6 °F 60.8 °F 94% 29.98 in 10.0 mi WNW 10.4 mph - N/A   Overcast
10:30 AM 62.6 °F 59.0 °F 88% 29.98 in 10.0 mi WNW 10.4 mph - N/A   Overcast
10:50 AM 62.6 °F 59.0 °F 88% 29.98 in 9.0 mi West 10.4 mph - N/A   Overcast
11:10 AM 64.4 °F 59.0 °F 83% 29.98 in 10.0 mi WNW 10.4 mph - N/A   Overcast
11:30 AM 64.4 °F 59.0 °F 83% 29.98 in 10.0 mi WNW 11.5 mph - N/A   Mostly Cloudy
11:50 AM 64.4 °F 59.0 °F 83% 29.98 in 10.0 mi NW 13.8 mph 19.6 mph N/A   Overcast
12:10 PM 64.4 °F 57.2 °F 77% 29.98 in 10.0 mi NNW 11.5 mph - N/A   Overcast
12:30 PM 64.4 °F 57.2 °F 77% 29.98 in 10.0 mi WNW 11.5 mph - N/A   Overcast
12:50 PM 64.4 °F 57.2 °F 77% 29.98 in 10.0 mi NW 11.5 mph - N/A   Overcast
1:10 PM 66.2 °F 59.0 °F 78% 29.98 in 10.0 mi NNW 8.1 mph - N/A   Overcast
1:30 PM 66.2 °F 59.0 °F 78% 29.98 in 10.0 mi WNW 12.7 mph - N/A   Overcast
1:50 PM 68.0 °F 57.2 °F 68% 29.98 in 10.0 mi NW 13.8 mph - N/A   Overcast
2:10 PM 68.0 °F 57.2 °F 68% 29.99 in 10.0 mi NNW 15.0 mph 18.4 mph N/A   Overcast
2:30 PM 68.0 °F 57.2 °F 68% 29.98 in 10.0 mi NNW 16.1 mph - N/A   Overcast
2:50 PM 68.0 °F 57.2 °F 68% 29.98 in 10.0 mi NW 16.1 mph - N/A   Overcast
3:10 PM 68.0 °F 57.2 °F 68% 29.98 in 10.0 mi WNW 15.0 mph - N/A   Mostly Cloudy
3:30 PM 68.0 °F 57.2 °F 68% 29.98 in 10.0 mi West 16.1 mph 20.7 mph N/A   Partly Cloudy
3:50 PM 68.0 °F 55.4 °F 64% 29.98 in 10.0 mi West 17.3 mph 21.9 mph N/A   Partly Cloudy
4:10 PM 66.2 °F 55.4 °F 68% 29.97 in 10.0 mi West 16.1 mph - N/A   Partly Cloudy
4:30 PM 68.0 °F 53.6 °F 60% 29.97 in 10.0 mi West 15.0 mph 21.9 mph N/A   Partly Cloudy
4:50 PM 66.2 °F 53.6 °F 64% 29.97 in 10.0 mi West 18.4 mph 24.2 mph N/A   Clear
5:10 PM 66.2 °F 53.6 °F 64% 29.97 in 10.0 mi WNW 15.0 mph - N/A   Clear
5:30 PM 66.2 °F 53.6 °F 64% 29.97 in 10.0 mi WNW 17.3 mph 21.9 mph N/A   Clear
5:50 PM 66.2 °F 53.6 °F 64% 29.97 in 10.0 mi WNW 15.0 mph - N/A   Clear
6:10 PM 64.4 °F 51.8 °F 64% 29.96 in 10.0 mi WNW 13.8 mph - N/A   Clear
6:30 PM 64.4 °F 51.8 °F 64% 29.96 in 10.0 mi WNW 13.8 mph 20.7 mph N/A   Clear
6:50 PM 62.6 °F 51.8 °F 68% 29.96 in 10.0 mi West 12.7 mph - N/A   Clear
7:05 PM 62.6 °F 51.8 °F 68% 29.96 in 10.0 mi WNW 15.0 mph - N/A   Clear
7:30 PM 60.8 °F 51.8 °F 72% 29.96 in 10.0 mi West 12.7 mph 17.3 mph N/A   Clear
7:50 PM 59.0 °F 51.8 °F 77% 29.97 in 10.0 mi WNW 13.8 mph - N/A   Scattered Clouds
8:10 PM 59.0 °F 51.8 °F 77% 29.97 in 9.0 mi WNW 11.5 mph 17.3 mph N/A   Partly Cloudy
8:30 PM 57.2 °F 51.8 °F 82% 29.97 in 9.0 mi WNW 10.4 mph - N/A   Clear
8:50 PM 57.2 °F 51.8 °F 82% 29.97 in 9.0 mi West 10.4 mph - N/A   Clear
9:10 PM 57.2 °F 51.8 °F 82% 29.98 in 9.0 mi WNW 9.2 mph - N/A   Clear
9:30 PM 55.4 °F 51.8 °F 88% 29.98 in 10.0 mi WNW 9.2 mph - N/A   Clear
9:50 PM 55.4 °F 51.8 °F 88% 29.98 in 10.0 mi WNW 8.1 mph - N/A   Clear
10:10 PM 55.4 °F 51.8 °F 88% 29.98 in 9.0 mi West 6.9 mph - N/A   Clear
10:30 PM 55.4 °F 50.0 °F 82% 29.98 in 8.0 mi West 6.9 mph - N/A   Clear
10:50 PM 55.4 °F 50.0 °F 82% 29.97 in 9.0 mi West 5.8 mph - N/A   Clear
11:10 PM 55.4 °F 51.8 °F 88% 29.97 in 9.0 mi West 3.5 mph - N/A   Mostly Cloudy
11:30 PM 55.4 °F 51.8 °F 88% 29.96 in 8.0 mi Calm Calm - N/A   Mostly Cloudy
11:50 PM 55.4 °F 50.0 °F 82% 29.96 in 9.0 mi West 3.5 mph - N/A   Scattered Clouds